Location: Skalnate Pleso
(49.1889°N, 20.2450°E)
Time: 01:24:03
(UTC+01:00)

Okean O Rocket - Pass Details

Date: 19 November 2019
Orbit: 622 x 645 km, 98.2° (Epoch: 13 December)

Event Time Altitude Azimuth Distance (km) Brightness Sun altitude
Rises 04:09:00 0° 28° (NNE) 2,915 5.4 -26.7°
Reaches altitude 10° 04:11:53 10° 49° (NE) 2,002 4.8 -26.3°
Maximum altitude 04:14:47 17° 91° (E) 1,570 4.5 -25.8°
Drops below altitude 10° 04:17:41 10° 133° (SE) 1,993 4.8 -25.3°
Sets 04:20:31 0° 153° (SSE) 2,896 5.4 -24.9°
